7 * 24
多渠道服务支持
STARLINK-37230(NORAD编号68730)是SpaceX星链(Starlink)星座中的一颗低轨互联网通信卫星,属于SpaceX打造全球卫星互联网系统的组成部分。星链星座计划通过大规模低轨卫星组网,为全球偏远和网络欠发达地区提供高速互联网接入服务。作为低轨卫星,它运行在近地轨道,具备较短的通信延迟,卫星配备相控阵天线与推进系统,可实现姿态控制和轨道调整,保障星座通信服务的稳定运行,目前在轨提供网络通信服务。
美国
(US)
| 数据来源 | 国际轨道数据 |
| 星历时间: | 2026-05-22T09:54:18+0800 3天前 查看轨道信息 |
| 半长轴: | 6721.978km |
| 偏心率: | 0.0000914 |
| 轨道倾角: | 97.285° |
| 近地点辐角 | 37.272° |
| 升交点赤经 | 5.747° |
| 平近点角 | 322.861° |
| 近地点: | 343.226km |
| 远地点: | 344.456km |
| 周期: | 91.412分钟 |
| 每日圈数: | 15.752779 |